Regional Weather Roundup
Issued by NWS

Home | Current Version | Previous Version | Graphics & Text | Print | Product List | Glossary Off
Versions: 1 2 3 4 5 6 7 8 9 10 11 12 13 14 15 16 17 18 19 20 21 22 23 24 25 26 27 28 29 30 31 32 33 34 35 36 37 38 39 40 41 42 43 44 45 46 47 48 49 50

000
ASUS43 KMKX 230421
RWRWI

WISCONSIN REGIONAL WEATHER ROUNDUP
NATIONAL WEATHER SERVICE MILWAUKEE/SULLIVAN WI
1100 PM CDT TUE APR 22 2014

NOTE: "FAIR" INDICATES FEW OR NO CLOUDS BELOW 12,000 FEET WITH NO
SIGNIFICANT WEATHER AND/OR OBSTRUCTIONS TO VISIBILITY.

WIZ001-002-006>008-014>016-023>028-230500-
NORTHWEST WISCONSIN

CITY           SKY/WX    TMP DP  RH WIND       PRES   REMARKS
SUPERIOR ARPT  CLEAR     33  26  75 CALM      30.10R
ASHLAND        CLEAR    N/A N/A N/A N5        30.12R
HAYWARD        CLEAR     29  22  75 CALM      30.10R
SIREN          CLEAR     34  24  67 CALM      30.09F
RICE LAKE      CLEAR     35  27  73 CALM      30.12S
LADYSMITH      CLEAR     34  29  82 CALM      30.12S
EAU CLAIRE     CLEAR     36  24  62 NE5       30.10R WCI  32
MENOMONIE      CLEAR     40  29  65 CALM      30.10S
NEW RICHMOND   CLEAR     38  32  81 CALM      30.10S
OSCEOLA        CLEAR     37  27  69 CALM      30.12S
$$

WIZ003>005-009-010-017-018-230500-
NORTH CENTRAL WISCONSIN

CITY           SKY/WX    TMP DP  RH WIND       PRES   REMARKS
WOODRUFF       CLEAR     27  14  57 CALM      30.09R
RHINELANDER    CLEAR     30  23  75 CALM      30.09S
EAGLE RIVER    CLEAR     28  25  90 CALM      30.09S
LAND O LAKES   CLEAR     27  25  90 CALM      30.10R
PHILLIPS       CLEAR     30  25  82 CALM      30.09S
TOMAHAWK       CLEAR     27  23  85 CALM      30.10R
MEDFORD        CLEAR     33  28  80 CALM      30.10R
MERRILL        CLEAR     31  27  86 CALM      30.10S
$$

WIZ029-030-035-036-043>047-230500-
CENTRAL WISCONSIN

CITY           SKY/WX    TMP DP  RH WIND       PRES   REMARKS
WAUSAU         CLEAR     36  26  67 CALM      30.09R
MOSINEE        CLEAR     37  27  65 CALM      30.11R
MARSHFIELD     CLEAR     40  25  55 CALM      30.10R
STEVENS POINT  CLEAR     34  25  71 CALM      30.12R
WAUPACA        CLEAR     41  27  56 CALM      30.11R
WAUTOMA        CLEAR     41  27  57 CALM      30.12R
WISC RAPIDS    CLEAR     38  25  59 CALM      30.12R
CAMP DOUGLAS   CLEAR     42  25  52 NE5       30.10R
$$

WIZ011>013-019>022-031-037>040-048>050-230500-
NORTHEAST WISCONSIN

CITY           SKY/WX    TMP DP  RH WIND       PRES   REMARKS
ANTIGO         CLEAR     32  26  78 N5        30.09S WCI  27
STURGEON BAY   CLEAR     34  25  69 N7        30.09S WCI  28
GREEN BAY      CLEAR     35  27  72 N7        30.10R WCI  29
MANITOWOC      CLEAR     38  28  67 N5        30.10R WCI  34
APPLETON       PTCLDY    37  27  65 N6        30.10R WCI  33
CLINTONVILLE   CLEAR     41  28  60 CALM      30.10R
OSHKOSH        CLEAR     39  28  64 CALM      30.09R
$$

WIZ032>034-041-042-053>061-230500-
SOUTHWEST WISCONSIN

CITY           SKY/WX    TMP DP  RH WIND       PRES   REMARKS
LA CROSSE      CLEAR     47  26  44 CALM      30.10R
SPARTA         CLEAR     36  26  68 CALM      30.11S
VIROQUA        FAIR      42  28  57 NE8       30.09R
BOSCOBEL       CLEAR     41  27  57 NE3       30.10R
PRAIRIE DU CHI CLEAR     44  31  61 CALM      30.08S
PLATTEVILLE    FAIR      43  26  51 N3        30.08S
$$

WIZ056-057-062-063-064-067-068-230500-
SOUTH CENTRAL WISCONSIN

CITY           SKY/WX    TMP DP  RH WIND       PRES   REMARKS
BARABOO/DELLS  CLEAR     41  25  53 NE7       30.09S
LONE ROCK      CLEAR     46  27  47 NE8       30.09R
WATERTOWN      CLEAR     41  29  62 N6        30.08R
MADISON        CLEAR     42  27  55 N6        30.09R
MIDDLETON      FAIR      37  29  71 NE3       30.09R
MONROE         CLEAR     43  27  53 NE7       30.07R
JANESVILLE     CLEAR     39  30  70 CALM      30.08R
$$

WIZ051-052-058>065-066-070>072-230500-
SOUTHEAST WISCONSIN

CITY           SKY/WX    TMP DP  RH WIND       PRES   REMARKS
MILWAUKEE      PTCLDY    37  30  75 NE9       30.10R WCI  30
WAUKESHA       CLEAR     32  28  86 CALM      30.09R
MILWAUKEE/TIMM CLEAR     37  28  70 NE7       30.10R WCI  32
RACINE         CLEAR     37  30  75 NE10      30.10R WCI  30
BURLINGTON     CLEAR     32  27  81 CALM      30.08R
KENOSHA        CLEAR     37  28  70 N3        30.08R
FOND DU LAC    CLEAR     39  29  67 N6        30.09R WCI  35
SHEBOYGAN      CLEAR     38  28  67 N6        30.09R WCI  33
WEST BEND      CLEAR     39  27  60 N3        30.08S
JUNEAU         CLEAR     40  26  57 N6        30.10R
$$

LSZ147-162-230500-
LAKE SUPERIOR

STATION/POSITION TIME  TEMP    WIND        PRES    WAVE
                       AIR SEA DIR/SP/G            HT/PER
                 (UTC) (F)     (DEG/KT/KT) (MB)    (FT/S)
DEVILS ISLAND    0400   36     140/ 10/ 11 1020.6R
PORT WING        0300   34      CALM  /  3 1019.0R
SAXON HARBOR     0300             CALM     1019.0S
$$

LMZ867-665-643>646-230500-
LAKE MICHIGAN

STATION/POSITION TIME  TEMP    WIND        PRES    WAVE
                       AIR SEA DIR/SP/G            HT/PER
                 (UTC) (F)     (DEG/KT/KT) (MB)    (FT/S)
NORTHPORT PIER   0300   33     310/  9/ 11 1018.6R
SISTER BAY       0309   33     360/  9/ 10   N/A
KEWAUNEE LAKESHO 0400   36     340/  5/  7 1019.7R
SHEBOYGAN LAKESH 0400   37      50/ 10/ 11 1019.9R
PORT WASHINGTON  0300   40      40/ 13/ 17 1019.3
MILWAUKEE LAKESH 0400   37      40/ 11/ 13   N/A
KENOSHA   LAKESH 0400   40      30/ 15/ 17   N/A
$$

TC  - TEMPERATURE IN CELSIUS
VSB - VISIBILITY IN STATUTE MILES
WCI - WIND CHILL INDEX
HX  - HEAT INDEX




USA.gov is the U.S. government's official web portal to all federal, state and local government web resources and services.